Tracking 19638 objects as of 18-Apr-2019
HD Live streaming from Space Station
objects crossing your sky now

THORAD AGENA D DEB

Track THORAD AGENA D DEB now!
10-day predictions


NORAD ID: 4911
Int'l Code: 1970-025FH
Perigee: 782.3 km
Apogee: 886.8 km
Inclination: 100.0 °
Period: 101.5 minutes
Semi major axis: 7205 km
RCS: 0.057 m2 (small)
Launch date: April 8, 1970
Source: United States (US)
Launch site: AIR FORCE WESTERN TEST RANGE (AFWTR)

Note: This is SATELLITE DEBRIS
aabbcc
Your satellite tracking list
Your tracking list is empty




NASA's NSSDC Master Catalog

Two Line Element Set (TLE):
1  4911U 70025FH  19107.79869409 +.00000342 +00000-0 +18365-3 0  9994
2  4911 099.9825 326.5293 0072493 037.5351 323.0851 14.19387079499270
Source of the keplerian elements: AFSPC